Simultaneous Nadir Overpasses (SNOs) Predictions

Prediction of SNOs between METOP-B and NOAA-19 Satellite Orbit:

Table of predicted SNOs for the next 14.0 days since TLE Epoch: 2/8/2016
Index Date (METOP-B) Time (METOP-B) Lat,Lon (METOP-B) SZA (METOP-B ) Date (NOAA-19) Time (NOAA-19) Lat,Lon (NOAA-19) SZA (NOAA-19 ) Distance(km) Time Diff (sec)
1 02/08/2016 23:10:39 -75.77, 11.59 89.34 02/08/2016 23:09:24 -75.77, 11.42 89.34 4.86 75
2 02/09/2016 00:01:20 75.73, 178.80 90.61 02/09/2016 00:00:28 75.72, 178.82 90.61 1.42 52
3 02/09/2016 00:52:02 -75.70, -13.97 89.43 02/09/2016 00:51:25 -75.71, -13.90 89.42 2.50 37
4 02/09/2016 01:42:42 75.71, 153.38 90.57 02/09/2016 01:42:30 75.71, 153.35 90.57 0.82 12
5 02/09/2016 02:33:24 -75.68, -39.39 89.48 02/09/2016 02:33:27 -75.70, -39.37 89.45 3.08 3
6 02/09/2016 03:24:04 75.68, 127.96 90.52 02/09/2016 03:24:32 75.70, 127.88 90.54 2.78 28
7 02/09/2016 04:14:46 -75.65, -64.81 89.52 02/09/2016 04:15:28 -75.65, -64.69 89.53 3.34 42
8 02/09/2016 05:05:26 75.66, 102.54 90.48 02/09/2016 05:06:33 75.64, 102.56 90.45 1.94 67
9 02/09/2016 05:56:15 -75.30, -91.23 89.88 02/09/2016 05:57:24 -75.36, -89.26 89.86 56.01 69
10 02/19/2016 12:34:08 -76.05, 171.56 92.65 02/19/2016 12:32:57 -76.02, 169.87 92.63 45.22 71
11 02/19/2016 13:24:54 75.77, -22.03 87.08 02/19/2016 13:23:58 75.77, -22.01 87.09 0.70 56
12 02/19/2016 14:15:36 -75.74, 145.22 92.96 02/19/2016 14:14:53 -75.75, 145.35 92.96 3.47 43
13 02/19/2016 15:06:16 75.74, -47.45 87.03 02/19/2016 15:06:00 75.76, -47.48 87.05 2.16 16
14 02/19/2016 15:56:58 -75.72, 119.80 93.01 02/19/2016 15:56:55 -75.74, 119.87 92.99 2.82 3
15 02/19/2016 16:47:38 75.72, -72.87 86.98 02/19/2016 16:48:01 75.70, -72.80 86.97 2.45 23
16 02/19/2016 17:38:20 -75.69, 94.38 93.06 02/19/2016 17:38:57 -75.73, 94.40 93.03 3.70 37
17 02/19/2016 18:29:00 75.69, -98.29 86.93 02/19/2016 18:30:03 75.69, -98.27 86.93 0.66 63
18 02/19/2016 19:19:44 -75.57, 68.67 93.19 02/19/2016 19:20:57 -75.62, 69.23 93.16 16.64 73




NCC Satellite Simultaneous Nadir Overpasses (SN
